Blog tentang Informasi Jadwal Kapal Pelni 2019

Jadwal Kapal Tidar Juni 2019 [Update]

0

Jadwal Kapal Tidar Juni 2019 – Alhamdulillah, pada saat yang baik ini admin kembali mempunyai kesempatan untuk berbagi dan memberikan informasi seputar jadwal pelni. Hari ini, admin akan memberikan informasi tentang jadwal kapal tidar 2019 serta harga tiket untuk kapal tidar.

Bukan hanya saja jadwal kapal tidar yang bisa Anda dapatkan dari blog ini tetapi juga kami telah mengupdate jadwal beberapa kapal pelni diantaranya adalah Kapal Sinabung, Kapal Dorolonda, Kapal Bukit Raya, Kapal Umsini dan Kapal Lawit.

Masih berbicara soal kebiasaan PT. PELNI PERSERO yang selalu menamai kapalnya dengan nama gunung maka pelni juga mempunyai kapal yang dinamakan KM TIDAR.

Berdasarkan informasi yang dihimpun jadwalpelni.com bahwa tidar adalah nama sebuah gunung yang terletak di Pulau Jawa. Gunung Tidar adalah salah satu gunung yang berada di tengah tengah Kota Magelang.

Puncak tertinggi gunung tidar adalah 503 meter diatas permukaan laut (Mdpl) atau setara dengan 1.650 kaki. Dipuncak gunung inilah terdapat sebuah tanah lapang yang dikenal dengan nama tugu Sa yang bermakna sapa salah seleh.

Dikutip dari Wikipedia, Gunung Tidar adalah kawah candradimuka nya Tentara Nasional Indonesia karena di lembah gunung ini para ksatria TNI ditempa.

Gunung tidar dikenal sebagai “Paku Tanah Jawa” karena dipuncak gunung tersebut terdapat tugu sebagai lambang kekuatan dan kebenaran.

Berbicara gunung tidar tidak terlepas dari tokoh yang sangat terkenal yaitu “Syekh Subakir dan Syekh Jangkung”. Konon, syekh subakir lah yang pertama kali menaklukan para lelembut gunung tidar karena gunung tersebut dikenal sangat angker.

Tidar, menurut legenda berasal dari dua kata yaitu “Pati” dan “Modar” itu dikarenakan pada jaman dahulu setiap orang yang memasuki gunung ini kalau enggak mati ya modar.

Selain itu, di gunung tidar juga terdapat makam yang panjangnya mencapai 7 meter dan makam ini dikenal sebagai makam Kyai Sepanjang. Kyai Sepanjang bukanlah manusia akan tetapi menurut legenda setempat adalah senjata Syekh Subakir ketika bertarung melawan Jin penunggu gunung tidar.

Setelah Anda mengetahui informasi nama “Tidar” yang digunakan oleh PT. PELNI sebagai nama kapal kini saatnya saya akan menginformasikan jadwal kapal tidar bulan maret 2019.

Sebagaimana tujuan kami yaitu memberikan informasi seluruh jadwal pelni di Indonesia maka kami akan terus mengupdate setiap bulan informasi yang terkait dengan jadwal kapal pelni yang beroperasi di seluruh perairan Indonesia.

jadwal kapal pelni tidar

Jadwal Kapal Tidar Juni 2019

Berikut ini adalah Tabel jadwal kapal pelni tidar juni 2019 :

Kapal BerangkatKapal TibaWaktu BerangkatWaktu Tiba
JayapuraBiak28-05-2019 Jam 20:0029-05-2019 Jam 15:00
BiakSerui29-05-2019 Jam 17:0030-05-2019 Jam 01:00
SeruiNabire30-05-2019 Jam 03:0030-05-2019 Jam 09:00
NabireManokwari30-05-2019 Jam 11:0030-05-2019 Jam 21:00
ManokwariSorong30-05-2019 Jam 23:5931-05-2019 Jam 12:00
SorongAmbon31-05-2019 Jam 15:0001-06-2019 Jam 12:00
AmbonNamlea (Buru)01-06-2019 Jam 15:0001-06-2019 Jam 20:00
Namlea (Buru)Bau-Bau01-06-2019 Jam 22:0002-06-2019 Jam 20:00
Bau-BauMakassar02-06-2019 Jam 22:0003-06-2019 Jam 12:00
MakassarTanjung Perak (Surabaya)03-06-2019 Jam 15:0004-06-2019 Jam 18:00
Tanjung Perak (Surabaya)Makassar05-06-2019 Jam 04:0006-06-2019 Jam 07:00
MakassarBau-Bau06-06-2019 Jam 15:0007-06-2019 Jam 06:00
Bau-BauNamlea (Buru)07-06-2019 Jam 08:0008-06-2019 Jam 08:00
Namlea (Buru)Ambon08-06-2019 Jam 09:0008-06-2019 Jam 14:00
AmbonTual08-06-2019 Jam 18:0009-06-2019 Jam 13:00
TualDobo09-06-2019 Jam 16:0009-06-2019 Jam 23:00
DoboKaimana10-06-2019 Jam 01:0010-06-2019 Jam 08:00
KaimanaFak-Fak10-06-2019 Jam 10:0010-06-2019 Jam 19:00
Fak-FakSorong10-06-2019 Jam 22:0011-06-2019 Jam 12:00
SorongManokwari11-06-2019 Jam 15:0012-06-2019 Jam 04:00
ManokwariNabire12-06-2019 Jam 07:0012-06-2019 Jam 17:00
NabireManokwari12-06-2019 Jam 19:0013-06-2019 Jam 05:00
ManokwariSorong13-06-2019 Jam 08:0013-06-2019 Jam 20:00
SorongFak-Fak13-06-2019 Jam 23:0014-06-2019 Jam 13:00
Fak-FakAmbon14-06-2019 Jam 16:0015-06-2019 Jam 14:00
AmbonNamlea (Buru)15-06-2019 Jam 17:0015-06-2019 Jam 22:00
Namlea (Buru)Bau-Bau15-06-2019 Jam 23:0016-06-2019 Jam 21:00
Bau-BauMakassar16-06-2019 Jam 23:0017-06-2019 Jam 13:00
MakassarBau-Bau17-06-2019 Jam 23:0018-06-2019 Jam 14:00
Bau-BauNamlea (Buru)18-06-2019 Jam 16:0019-06-2019 Jam 16:00
Namlea (Buru)Ambon19-06-2019 Jam 17:0019-06-2019 Jam 22:00
AmbonTual20-06-2019 Jam 01:0020-06-2019 Jam 20:00
TualDobo20-06-2019 Jam 23:5921-06-2019 Jam 07:00
DoboKaimana21-06-2019 Jam 09:0021-06-2019 Jam 16:00
KaimanaFak-Fak21-06-2019 Jam 18:0022-06-2019 Jam 03:00
Fak-FakSorong22-06-2019 Jam 06:0022-06-2019 Jam 20:00
SorongManokwari22-06-2019 Jam 23:5923-06-2019 Jam 13:00
ManokwariNabire23-06-2019 Jam 16:0024-06-2019 Jam 02:00
NabireManokwari24-06-2019 Jam 04:0024-06-2019 Jam 14:00
ManokwariSorong24-06-2019 Jam 17:0025-06-2019 Jam 05:00
SorongFak-Fak25-06-2019 Jam 08:0025-06-2019 Jam 22:00
Fak-FakKaimana26-06-2019 Jam 01:0026-06-2019 Jam 09:00
KaimanaDobo26-06-2019 Jam 11:0026-06-2019 Jam 19:00
DoboTual26-06-2019 Jam 21:0027-06-2019 Jam 04:00
TualAmbon27-06-2019 Jam 06:0028-06-2019 Jam 01:00
AmbonNamlea (Buru)28-06-2019 Jam 04:0028-06-2019 Jam 09:00
Namlea (Buru)Bau-Bau28-06-2019 Jam 10:0029-06-2019 Jam 08:00
Bau-BauMakassar29-06-2019 Jam 10:0030-06-2019 Jam 00:01
MakassarBau-Bau30-06-2019 Jam 10:0001-07-2019 Jam 01:00
Bau-BauNamlea (Buru)01-07-2019 Jam 03:0002-07-2019 Jam 03:00
Namlea (Buru)Ambon02-07-2019 Jam 05:0002-07-2019 Jam 10:00


Catatan :

  • Jadwal sewaktu-waktu bisa berubah tanpa pemberitahuan terlebih dahulu. Pastikan selalu cek jadwal kapal laut di Jadwalpelni.com
  • Kami menyarankan, Anda reservasi tiket 1 minggu sebelum jadwal keberangkatan kapal.
  • Harap Check-In 2 jam sebelum jadwal keberangkatan.

Harga Tiket Kapal Tidar 2019

Informasi harga tiket kapal pelni tidar 2019 sama seperti kapal pelni yang lain.

Rute KapalHarga untuk DewasaHarga untuk Bayi
Makassar – Bau BauRp 168.500Rp 21.000
Makassar – TualRp 468.500Rp 51.000
Tual – MakassarRp 453.500Rp 51.000
Tual – AmbonRp 265.500Rp 33.000
Ambon – TualRp 273.000Rp. 33.000
Bau Bau – MakassarRp 154.000Rp 21.000
Kaimana – SorongRp 222.000Rp 28.000
Kaimana – AmbonRp 318.000Rp 38.000
Kaimana – NabireRp 404.000Rp 46.000
Sorong – AmbonRp 465.000Rp 51.000
Sorong – NabireRp 249.000Rp 29.000
Sorong – Bau BauRp 484.000Rp 53.000
Sorong – MakassarRp 558.000Rp 60.000

Harga tiket sewaktu-waktu bisa berubah dan pastikan Anda selalu melakukan pembelian tiket H-3 sebelum jadwal keberangkatan.

Demikian informasi jadwal kapal tidar 2019 ini disampaikan. Semoga informasi ini bermanfaat dan terus dukung jadwalpelni.com menjadi terdepan dalam memberikan informasi jadwal kapal laut.

Leave A Reply

Your email address will not be published.